Regional Weather Roundup
Issued by NWS

Home | Current Version | Previous Version | Graphics & Text | Print | Product List | Glossary On
Versions: 1 2 3 4 5 6 7 8 9 10 11 12 13 14 15 16 17 18 19 20 21 22 23 24 25 26 27
000
ASUS45 KBOU 120410
RWRCO

WEATHER ROUNDUP FOR COLORADO
NATIONAL WEATHER SERVICE DENVER/BOULDER CO
900 PM MST MON DEC 11 2017

NOTE: "FAIR" INDICATES FEW OR NO CLOUDS BELOW 12000 FEET WITH NO
SIGNIFICANT WEATHER AND/OR OBSTRUCTIONS TO VISIBILITY.

COZ001>005-013-030-031-120500-
...NORTHWEST COLORADO...

CITY           SKY/WX    TMP DP  RH WIND       PRES   REMARKS
CRAIG          FAIR      14   8  77 CALM      30.53R
HAYDEN         FAIR      27  12  53 E9        30.53S WCI  18
MEEKER         FAIR      24   8  50 NE3       30.51R
RABBIT EARS PA FAIR      28   9  43 W7        30.57S WCI  21
STEAMBOAT SPGS FAIR      23  12  62 CALM      30.53S
WALDEN         FAIR      14   5  67 SE9       30.54S WCI   2
$$

COZ006>008-011-120500-
...WEST CENTRAL VALLEYS...

CITY           SKY/WX    TMP DP  RH WIND       PRES   REMARKS
GRAND JUNCTION FAIR      31   2  29 NE5       30.48R WCI  26
MONTROSE       FAIR      23   2  40 S7        30.51R WCI  15
EAGLE          FAIR      18   9  68 SE3       30.59R
RIFLE          FAIR      27   3  35 S3        30.50R
DELTA          FAIR      31  -1  25 E3        30.50R
NUCLA          FAIR      32  -8  18 E9        30.51R WCI  24
$$

COZ017>023-064>068-120500-
...SOUTHWEST COLORADO...

CITY           SKY/WX    TMP DP  RH WIND       PRES   REMARKS
DURANGO        FAIR      21   1  41 CALM      30.44R
CORTEZ         FAIR      21   0  39 E9        30.44R WCI  11
PAGOSA SPRINGS FAIR      28  -1  27 CALM      30.46S
TELLURIDE      FAIR      33   1  26 SE7       30.54S WCI  27
WOLF CREEK PAS FAIR      30  -8  19 N9        30.65R WCI  22
$$

COZ009-010-012-014-032>034-037-058>063-120500-
...CENTRAL COLORADO...

CITY           SKY/WX    TMP DP  RH WIND       PRES   REMARKS
ASPEN          FAIR      27  12  53 S8        30.52S WCI  19
BUENA VISTA    FAIR      32   4  30 SE3       30.50S
COPPER MTN     NOT AVBL
BERTHOUD PASS  FAIR      19   9  63 NW16G22   30.59S WCI   5
COTTONWOOD PAS FAIR      41   1  19 S9        30.54S
GUNNISON       FAIR      16   3  56 CALM      30.55R
KREMMLING      FAIR      14  10  85 CALM      30.59S
LEADVILLE      FAIR      23  10  57 NE5       30.56R WCI  17
MONARCH PASS   FAIR      30   0  27 NW3       30.70F
SALIDA         FAIR      32   4  30 SW9       30.58S WCI  25
SUNLIGHT       FAIR      27  14  59 N3        30.62S
WILKERSON PASS FAIR      30   1  29 N6        30.59S WCI  24
$$

COZ069>075-120500-
...SAN LUIS VALLEY/SANGRE DE CRISTO MOUNTAINS...

CITY           SKY/WX    TMP DP  RH WIND       PRES   REMARKS
ALAMOSA        FAIR      15  -7  37 SW8       30.48R WCI   4
DEL NORTE      FAIR      27  -3  27 W8        30.50R WCI  19
LA VETA PASS   FAIR      32   0  25 CALM        N/A
SAGUACHE       FAIR      36   1  23 NW15      30.50R
$$

COZ035-036-038>040-120500-
...NORTHERN COLORADO FRONT RANGE...

CITY           SKY/WX    TMP DP  RH WIND       PRES   REMARKS
DENVER INTL AP FAIR      35   8  32 S7        30.45S WCI  29
DMNS CITY PARK NOT AVBL
AURORA         PTCLDY    37   9  31 SE7       30.46S
FRONT RANGE AP FAIR      30   7  39 S9        30.46S WCI  21
ERIE MUNI ARPT FAIR      40   8  26 SE10      30.49S
BOULDER MUN AP FAIR      34   9  35 CALM      30.44R
CENTENNIAL     FAIR      34   8  33 SE12      30.46R WCI  25
BROOMFIELD     PTCLDY    39   9  28 MISG      30.45R
FORT COLLINS   FAIR      35  10  35 S7        30.44R WCI  29
LONGMONT       FAIR      29  11  48 NW3       30.47R
$$

COZ041-046-047-076>085-087-088-120500-
...PIKES PEAK/PALMER DIVIDE AND SOUTHERN FOOTHILLS...

CITY           SKY/WX    TMP DP  RH WIND       PRES   REMARKS
COLO. SPRINGS  FAIR      33   5  30 N8        30.47S WCI  26
A. F. ACADEMY  FAIR      23   2  39 N10       30.47R WCI  12
SCHRIEVER AFB  FAIR      36   3  25 CALM      30.48R
CHEYENNE MTN   FAIR      38   1  21 CALM      30.42S
ELLICOTT         N/A    N/A N/A N/A N7        30.46S
FALCON         FAIR      30   3  31 W5        30.49R WCI  26
FORT CARSON    FAIR      39   2  21 NW9       30.45S
LIMON          FAIR      28   7  41 W10       30.45S WCI  19
MONUMENT HILL  FAIR      21   5  49 CALM      30.49R
CANON CITY     FAIR      37   3  23 W3        30.46S
WALSENBURG     FAIR      32   5  32 W12       30.47F WCI  23
TRINIDAD       FAIR      25   6  44 W8        30.48R WCI  16
$$

COZ042>045-048>051-090-091-120500-
...NORTHEAST COLORADO...

CITY           SKY/WX    TMP DP  RH WIND       PRES   REMARKS
GREELEY ARPT   FAIR      32  11  41 CALM      30.45S
AKRON          FAIR      33  10  38 N16       30.41S WCI  23
BURLINGTON     FAIR      32  11  41 NW9       30.42R WCI  24
WRAY           FAIR      28  10  47 N8        30.43S WCI  20
YUMA           FAIR      34  12  40 NW10      30.42S WCI  26
STERLING       FAIR      30  12  47 NW9       30.42S WCI  22
HOLYOKE        FAIR      30  14  51 NW7       30.42F WCI  23
FORT MORGAN    FAIR      34   7  32 NW7       30.44R WCI  28
$$

COZ086-089-092>099-120500-
...SOUTHEAST COLORADO...

CITY           SKY/WX    TMP DP  RH WIND       PRES   REMARKS
PUEBLO         FAIR      33   6  32 CALM      30.45R
LA JUNTA       FAIR      35   7  31 W5        30.46R WCI  31
LAMAR          FAIR      30   7  37 SW5       30.43R WCI  25
SPRINGFIELD      N/A     26   8  46 N10       30.44R WCI  16
$$




USA.gov is the U.S. government's official web portal to all federal, state and local government web resources and services.